Terminal Aerodrome Forecast
Issued by NWS Dodge City, KS

Home | Current Version | Previous Version | Graphics & Text | Print | Product List | Glossary Off
Versions: 1 2 3 4 5 6 7 8 9 10 11 12 13

000
FTUS43 KDDC 140500
TAFDDC
TAF
KDDC 140520Z 1406/1506 35020G30KT 2SM -SN OVC010
      TEMPO 1406/1410 1/4SM +SN
     FM141000 36015G25KT 2SM -SN OVC007
     FM141400 36020G28KT P6SM BKN010=

USA.gov is the U.S. government's official web portal to all federal, state and local government web resources and services.